Home > Weather > Bristol > Past weeks

Flag for USA Weather for the Past 2 Weeks in Bristol, Tennessee, USA

Now
66 °F

Mostly cloudy.


Feels Like: 66 °F
Forecast: 56 / 69 °F
Wind: 6 mph from Northwest

Location: Abingdon-Southwest Abingdon

Current Time: May 3, 2016 at 12:58:06 PM

Latest Report: May 3, 2016 at 12:15 PM


Visibility: 10 mi

Pressure: 29.89 "Hg (28.16 "Hg at 510m altitude)

Humidity: 78%

Dew Point: 59 °F

Location of BristolLocation

Historic Weather in Bristol — Graph

°F

Bristol Temperature Yesterday

Maximum temperature yesterday: 78 °F (at 4:15 PM)
Minimum temperature yesterday: 59 °F (at 10:15 PM)
Average temperature yesterday: 69 °F

High & Low Weather Summary for the Past Weeks

 TemperatureHumidityPressure
High82 °F (Apr 20, 4:55 PM)100% (Apr 22, 6:55 AM)30.39 "Hg (Apr 22, 6:55 AM)
Low42 °F (Apr 24, 4:15 AM)15% (Apr 19, 3:55 PM)29.84 "Hg (Apr 27, 7:15 PM)
Average66 °F64%30.04 "Hg
* Reported Apr 18 11:15 AM — May 3 11:35 AM, Bristol, Weather by CustomWeather, © 2016

Note: Actual official high and low records may vary slightly from our data, if they occured in-between our weather recording intervals... More about our weather records

Advertising

Bristol Weather History for the Previous 24 Hours

Scroll right to see more
 ConditionsComfort  
Time TempWeatherWind HumidityBarometerVisibility
11:35 AM
Tue, May 3
65 °FMostly cloudy.10 mph82%29.89 "Hg10 mi
11:15 AM63 °FOvercast.12 mph86%29.90 "Hg10 mi
10:55 AM64 °FOvercast.7 mph85%29.89 "Hg10 mi
10:15 AM61 °FOvercast.No wind89%29.90 "Hg10 mi
9:55 AM61 °FCloudy.6 mph91%29.90 "Hg10 mi
9:15 AM61 °FLow clouds.6 mph92%29.90 "Hg10 mi
8:55 AM61 °FCloudy.No wind94%29.89 "Hg10 mi
8:15 AM59 °FLow clouds.3 mph99%29.91 "Hg7 mi
7:15 AM59 °FFog.3 mph99%29.89 "Hg4 mi
6:55 AM59 °FLow clouds.No wind99%29.89 "Hg7 mi
6:35 AM59 °FLow clouds.No wind100%29.89 "Hg7 mi
6:15 AM59 °FLow clouds.No wind100%29.89 "Hg7 mi
5:55 AM59 °FFog.3 mph99%29.89 "Hg5 mi
5:15 AM59 °FRain. Overcast.No wind99%29.90 "Hg4 mi
4:55 AM59 °FOvercast.No wind99%29.90 "Hg10 mi
4:15 AM59 °FMostly cloudy.No wind98%29.89 "Hg10 mi
3:55 AM59 °FLight rain. Overcast.No wind98%29.89 "Hg7 mi
3:15 AM59 °FLight rain. Mostly cloudy.No wind96%29.90 "Hg10 mi
2:55 AM59 °FLight rain. Mostly cloudy.No wind96%29.91 "Hg7 mi
2:35 AM60 °FOvercast.No wind95%29.91 "Hg10 mi
2:15 AM60 °FOvercast.No wind96%29.92 "Hg10 mi
1:35 AM60 °FOvercast.No wind98%29.92 "Hg10 mi
12:55 AM59 °FPartly cloudy.3 mph99%29.92 "Hg10 mi
12:35 AM59 °FPassing clouds.No wind98%29.92 "Hg10 mi
12:15 AM59 °FPassing clouds.No wind98%29.93 "Hg10 mi
11:55 PM
Mon, May 2
59 °FPassing clouds.3 mph97%29.94 "Hg10 mi
11:15 PM59 °FMostly cloudy.No wind96%29.97 "Hg10 mi
10:55 PM59 °FThunderstorms. Mostly cloudy.No wind95%29.97 "Hg10 mi
10:35 PM59 °FMostly cloudy.No wind95%29.97 "Hg10 mi
10:15 PM59 °FMostly cloudy.No wind95%29.97 "Hg10 mi
9:55 PM59 °FLight rain. Overcast.No wind94%29.96 "Hg10 mi
9:15 PM60 °FScattered clouds.No wind91%29.96 "Hg10 mi
8:55 PM60 °FLight rain. Cloudy.No wind90%29.96 "Hg10 mi
8:15 PM60 °FLight rain. More clouds than sun.8 mph89%29.98 "Hg7 mi
7:55 PM63 °FRain. Mostly cloudy.6 mph74%29.98 "Hg10 mi
7:15 PM64 °FCloudy.8 mph69%29.98 "Hg10 mi
6:55 PM65 °FPartly sunny.16 mph64%29.96 "Hg10 mi
6:35 PM65 °FThundershowers. Broken clouds.17 mph63%29.95 "Hg10 mi
6:15 PM66 °FBroken clouds.16 mph64%29.95 "Hg10 mi
5:55 PM73 °FCloudy.16 mph59%29.95 "Hg10 mi
5:15 PM75 °FThundershowers. Scattered clouds.9 mph58%29.95 "Hg10 mi
4:55 PM76 °FBroken clouds.16 mph55%29.94 "Hg10 mi
4:35 PM76 °FPartly sunny.9 mph55%29.94 "Hg10 mi
4:15 PM78 °FSunny.9 mph54%29.95 "Hg10 mi
3:55 PM75 °FSunny.8 mph56%29.95 "Hg10 mi
3:35 PM76 °FSunny.13 mph53%29.95 "Hg10 mi
3:15 PM76 °FScattered clouds.8 mph55%29.95 "Hg10 mi
2:55 PM76 °FPartly sunny.8 mph54%29.96 "Hg10 mi
2:15 PM77 °FScattered clouds.13 mph56%29.98 "Hg10 mi
1:55 PM77 °FBroken clouds.7 mph56%30.00 "Hg10 mi
1:15 PM75 °FMore clouds than sun.8 mph62%30.02 "Hg10 mi
12:55 PM75 °FMore clouds than sun.9 mph62%30.02 "Hg10 mi
12:35 PM75 °FBroken clouds.12 mph62%30.02 "Hg10 mi
12:15 PM75 °FBroken clouds.9 mph62%30.03 "Hg10 mi
Weather by CustomWeather, © 2016

See weather overviewHow to use our weather pages